This is the latest recevied weather packets stored in our database for station/object K5FEP. If no packets are shown the sender has not sent any weather packets the latest 10 day(s).
| Time | Temp. | Humidity | Pressure | Rain* | Wind** | Luminosity | Snow |
|---|---|---|---|---|---|---|---|
| 1777929931 | 26.11° C | 31% | 1011.8 hPa | 0 mm | - | 424 W/m² | - |
| 1777929629 | 26.11° C | 31% | 1011.8 hPa | 0 mm | - | 463 W/m² | - |
| 1777929326 | 26.11° C | 31% | 1011.7 hPa | 0 mm | - | 480 W/m² | - |
| 1777929023 | 26.11° C | 30% | 1011.7 hPa | 0 mm | - | 393 W/m² | - |
| 1777928720 | 26.67° C | 32% | 1011.6 hPa | 0 mm | - | 287 W/m² | - |
| 1777928416 | 26.67° C | 31% | 1011.6 hPa | 0 mm | - | 361 W/m² | - |
| 1777928114 | 26.11° C | 33% | 1011.5 hPa | 0 mm | - | 590 W/m² | - |
| 1777927812 | 26.11° C | 31% | 1011.6 hPa | 0 mm | - | 613 W/m² | - |
| 1777927510 | 25.56° C | 29% | 1011.5 hPa | 0 mm | - | 516 W/m² | - |
| 1777927208 | 25.56° C | 31% | 1011.7 hPa | 0 mm | - | 568 W/m² | - |
| 1777926906 | 25° C | 31% | 1011.8 hPa | 0 mm | - | 505 W/m² | - |
| 1777926603 | 24.44° C | 33% | 1011.9 hPa | 0 mm | - | 427 W/m² | - |
| 1777926299 | 24.44° C | 32% | 1011.9 hPa | 0 mm | - | 191 W/m² | - |
| 1777925996 | 25° C | 31% | 1011.8 hPa | 0 mm | - | 178 W/m² | - |
| 1777925693 | 25.56° C | 29% | 1011.9 hPa | 0 mm | - | 470 W/m² | - |
| 1777925390 | 25.56° C | 30% | 1011.9 hPa | 0 mm | - | 502 W/m² | - |
| 1777925087 | 26.11° C | 29% | 1012.1 hPa | 0 mm | - | 561 W/m² | - |
| 1777924783 | 25.56° C | 29% | 1011.9 hPa | 0 mm | - | 776 W/m² | - |
| 1777924479 | 26.11° C | 29% | 1012.4 hPa | 0 mm | - | 269 W/m² | - |
| 1777924176 | 26.67° C | 30% | 1012.1 hPa | 0 mm | - | 802 W/m² | - |
| 1777923872 | 26.11° C | 31% | 1012.4 hPa | 0 mm | - | 862 W/m² | - |
| 1777923568 | 25.56° C | 30% | 1012.6 hPa | 0 mm | - | 844 W/m² | - |
| 1777923266 | 25° C | 30% | 1012.6 hPa | 0 mm | - | 725 W/m² | - |
| 1777922964 | 25.56° C | 31% | 1012.5 hPa | 0 mm | - | 341 W/m² | - |
| 1777922661 | 25° C | 29% | 1012.7 hPa | 0 mm | - | 890 W/m² | - |
* Rain latest hour (hover to see other rain measurements)
** Current wind speed in m/s (hover to see current wind gust speed)